Change the Weather History Date:

Friday, October 5, 2012

  Actual Average Record
Temperature  
Mean Temperature 48 °F -  
Max Temperature 55 °F 47 °F 68 °F (2010)
Min Temperature 42 °F 39 °F 37 °F (1998)
Degree Days  
Heating Degree Days 16    
Moisture  
Dew Point 39 °F    
Average Humidity 72    
Maximum Humidity 87    
Minimum Humidity 54    
Precipitation  
Precipitation 0.00 in - - ()
Sea Level Pressure  
Sea Level Pressure 29.44 in    
Wind  
Wind Speed 3 mph ()    
Max Wind Speed 6 mph    
Max Gust Speed -    
Visibility 6.2 miles    
Events Rain    
Averages and records for this station are not official NWS values.
T = Trace of Precipitation, MM = Missing Value Source: Averaged Metar Reports

Daily Weather History Graph

Daily Weather History Graph

Search for Another Location

Airport or City:

Trip Planner

Search our weather history database for the weather conditions in past years. The results will help you decide how hot, cold, wet, or windy it might be!

Date:

Astronomy

Oct. 05, 2012 Rise Set
Actual Time 7:48 AM CEST 6:44 PM CEST
Civil Twilight 7:02 AM CEST 7:29 PM CEST
Nautical Twilight 6:08 AM CEST 8:23 PM CEST
Astronomical Twilight 5:12 AM CEST 9:19 PM CEST
Moon 8:10 PM CEST (10/5) 2:26 PM CEST (10/5)
Length of Visible Light 12h 27m
Length of Day
10h 55m
Waning Gibbous, 76% of the Moon is Illuminated
Oct 5
Waning Gibbous
Oct 8
Last Quarter
Oct 15
New
Oct 22
First Quarter
Oct 29
Full

Hourly Weather History & Observations

Time (CEST) Temp. Windchill Dew Point Humidity Pressure Visibility Wind Dir Wind Speed Gust Speed Precip Events Conditions
12:20 AM 46.4 °F 45.2 °F 41.0 °F 81% 29.44 in 6.2 mi West 3.5 mph - N/A   Drizzle
12:50 AM 46.4 °F 44.3 °F 39.2 °F 76% 29.44 in 6.2 mi SSW 4.6 mph - N/A Rain Light Rain
1:20 AM 46.4 °F - 41.0 °F 81% 29.44 in 6.2 mi Variable 2.3 mph - N/A   Scattered Clouds
1:50 AM 46.4 °F 43.5 °F 39.2 °F 76% 29.44 in 6.2 mi South 5.8 mph - N/A   Overcast
2:20 AM 46.4 °F 44.3 °F 37.4 °F 71% 29.44 in 6.2 mi South 4.6 mph - N/A   Overcast
2:50 AM 46.4 °F 45.2 °F 37.4 °F 71% 29.44 in 6.2 mi SSE 3.5 mph - N/A   Overcast
3:20 AM 46.4 °F 45.2 °F 37.4 °F 71% 29.44 in 6.2 mi SSE 3.5 mph - N/A   Overcast
3:50 AM 46.4 °F 45.2 °F 39.2 °F 76% 29.44 in 6.2 mi South 3.5 mph - N/A   Mostly Cloudy
4:20 AM 46.4 °F - 39.2 °F 76% 29.44 in 6.2 mi Calm Calm - N/A   Mostly Cloudy
4:50 AM 44.6 °F - 37.4 °F 76% 29.44 in 6.2 mi Variable 1.2 mph - N/A   Overcast
5:20 AM 44.6 °F - 37.4 °F 76% 29.44 in 6.2 mi Variable 1.2 mph - N/A   Overcast
5:50 AM 44.6 °F - 37.4 °F 76% 29.44 in 6.2 mi Variable 1.2 mph - N/A   Mostly Cloudy
6:20 AM 46.4 °F 45.2 °F 37.4 °F 71% 29.44 in 6.2 mi SSW 3.5 mph - N/A   Mostly Cloudy
6:50 AM 44.6 °F - 37.4 °F 76% 29.44 in 6.2 mi Variable 2.3 mph - N/A   Scattered Clouds
7:20 AM 42.8 °F - 37.4 °F 81% 29.44 in 6.2 mi Variable 2.3 mph - N/A   Scattered Clouds
7:50 AM 42.8 °F - 37.4 °F 81% 29.44 in 6.2 mi SE 1.2 mph - N/A   Scattered Clouds
8:20 AM 44.6 °F - 39.2 °F 81% 29.47 in 6.2 mi Variable 2.3 mph - N/A   Mostly Cloudy
8:50 AM 44.6 °F - 37.4 °F 76% 29.47 in 6.2 mi Variable 2.3 mph - N/A   Mostly Cloudy
9:20 AM 46.4 °F - 37.4 °F 71% 29.47 in 6.2 mi Variable 2.3 mph - N/A   Mostly Cloudy
9:50 AM 46.4 °F - 37.4 °F 71% 29.44 in 6.2 mi Calm Calm - N/A   Mostly Cloudy
10:20 AM 48.2 °F - 41.0 °F 76% 29.44 in 6.2 mi Variable 2.3 mph - N/A   Mostly Cloudy
10:50 AM 48.2 °F - 39.2 °F 71% 29.47 in 6.2 mi Variable 2.3 mph - N/A   Mostly Cloudy
11:20 AM 50.0 °F - 39.2 °F 66% 29.47 in 6.2 mi Variable 2.3 mph - N/A   Scattered Clouds
11:50 AM 50.0 °F - 41.0 °F 71% 29.47 in - East 3.5 mph - N/A   Clear
12:20 PM 51.8 °F - 41.0 °F 67% 29.47 in - East 3.5 mph - N/A   Clear
12:50 PM 51.8 °F - 41.0 °F 67% 29.44 in - ESE 3.5 mph - N/A   Clear
1:20 PM 55.4 °F - 41.0 °F 58% 29.44 in - Variable 1.2 mph - N/A   Clear
1:50 PM 53.6 °F - 37.4 °F 54% 29.44 in - SSW 2.3 mph - N/A   Clear
2:20 PM 53.6 °F - 39.2 °F 58% 29.44 in 6.2 mi West 3.5 mph - N/A   Mostly Cloudy
2:50 PM 51.8 °F - 41.0 °F 67% 29.44 in 6.2 mi NNE 4.6 mph - N/A   Scattered Clouds
3:20 PM 53.6 °F - 41.0 °F 62% 29.44 in 6.2 mi North 5.8 mph - N/A   Scattered Clouds
3:50 PM 51.8 °F - 39.2 °F 62% 29.44 in 6.2 mi NE 4.6 mph - N/A   Scattered Clouds
4:20 PM 51.8 °F - 39.2 °F 62% 29.44 in 6.2 mi North 5.8 mph - N/A   Scattered Clouds
4:50 PM 53.6 °F - 39.2 °F 58% 29.44 in 6.2 mi WSW 2.3 mph - N/A   Partly Cloudy
5:20 PM 53.6 °F - 37.4 °F 54% 29.44 in - West 4.6 mph - N/A   Clear
5:50 PM 51.8 °F - 39.2 °F 62% 29.44 in - West 4.6 mph - N/A   Clear
6:20 PM 50.0 °F - 39.2 °F 66% 29.44 in - West 3.5 mph - N/A   Clear
6:50 PM 46.4 °F 45.2 °F 39.2 °F 76% 29.44 in - West 3.5 mph - N/A   Clear
7:20 PM 44.6 °F - 39.2 °F 81% 29.44 in - West 2.3 mph - N/A   Clear
7:50 PM 42.8 °F - 37.4 °F 81% 29.44 in - West 2.3 mph - N/A   Clear
8:20 PM 44.6 °F 43.1 °F 35.6 °F 71% 29.44 in - West 3.5 mph - N/A   Clear
8:50 PM 44.6 °F - 37.4 °F 76% 29.44 in - Calm Calm - N/A   Clear
9:20 PM 42.8 °F 41.1 °F 37.4 °F 81% 29.44 in - East 3.5 mph - N/A   Clear
9:50 PM 42.8 °F 41.1 °F 37.4 °F 81% 29.44 in - East 3.5 mph - N/A   Clear
10:20 PM 44.6 °F 43.1 °F 39.2 °F 81% 29.44 in - ENE 3.5 mph - N/A   Clear
10:50 PM 44.6 °F - 39.2 °F 81% 29.44 in - Variable 2.3 mph - N/A   Clear
11:20 PM 42.8 °F 40.1 °F 39.2 °F 87% 29.44 in 6.2 mi NE 4.6 mph - N/A   Partly Cloudy
11:50 PM 44.6 °F 43.1 °F 41.0 °F 87% 29.44 in 6.2 mi NNE 3.5 mph - N/A   Unknown